[[{"header":{"parameterUnit":"m.s-1","parameterCategory":2,"la1":30.2992,"la2":30.254,"lo1":-89.0895,"lo2":-89.0443,"dy":0.0025,"dx":0.0025,"nx":19,"ny":19,"refTime":"2026-04-20T09:00:00:Z","depth":"0","parameterNumber":2,"parameterNumberName":"U-component_of_CURRENTS"},"data":[0,0,0,0.2945,0.2946,0.3006,0.3006,0.3091,0.3091,0,0,0,0,0,0,0,0,0,0,0,0.292,0.2921,0.2944,0.2946,0.3006,0.3006,0.309,0.3091,0,0,0,0,0,0,0,0,0,0,0,0.292,0.2921,0.2921,0.2946,0.3006,0.3006,0.309,0.3043,0,0,0,0,0,0,0,0,0,0,0.2983,0.2958,0.292,0.2921,0.2947,0.3006,0.3006,0.3041,0.3046,0.3066,0,0.3074,0,0.3087,0.3097,0.3098,0,0,0,0.2945,0.2953,0.2973,0.2921,0.2947,0.3006,0.2979,0.3043,0.3049,0.3073,0.3075,0.3079,0.3089,0.3098,0.3098,0.3243,0.3244,0,0,0.2942,0.2929,0.2969,0.2977,0.2963,0.2977,0.2981,0.3047,0.3051,0.3076,0.3081,0.309,0.3098,0.3099,0.3242,0.3243,0,0,0,0.2933,0.2927,0.2945,0.2973,0.2985,0.2979,0.2983,0.3048,0.3055,0.3082,0.3091,0.3099,0.31,0.3241,0.3243,0.3321,0,0,0,0.2931,0.2922,0.2943,0.2936,0.2984,0.3016,0.2983,0.305,0.3059,0.3091,0.3099,0.3101,0.324,0.3242,0.3317,0.3344,0,0,0,0.2918,0.2921,0.2928,0.2935,0.2963,0.3016,0.3026,0.3052,0.3065,0.3098,0.3101,0.3239,0.3242,0.3313,0.3338,0.3398,0,0,0,0.2902,0.2919,0.2928,0.2958,0.2962,0.3028,0.3026,0.3078,0.3109,0.3099,0.324,0.3243,0.3312,0.3334,0.3394,0.3283,0.3293,0,0,0.2916,0.292,0.2941,0.2951,0.301,0.3019,0.3108,0.3145,0.3152,0.3216,0.322,0.3318,0.3338,0.3397,0.3411,0.3417,0,0,0,0.2942,0.2953,0.2976,0.3009,0.3056,0.3126,0.316,0.3203,0.3285,0.3181,0.3341,0.3352,0.3386,0.3311,0.3317,0.3096,0.3253,0.3253,0.3252,0.292,0.2958,0.3,0.3057,0.3109,0.3206,0.3287,0.3354,0.3342,0.3405,0.3433,0.3555,0.3477,0.348,0.3254,0.3457,0.3457,0.3457,0.3457,0.2931,0.2952,0.3016,0.3068,0.3157,0.3235,0.3403,0.3447,0.3586,0.3541,0.3571,0.3419,0.349,0.3247,0.3463,0.3462,0.3461,0.3461,0.346,0.2897,0.2916,0.2951,0.3039,0.3144,0.3269,0.3424,0.3561,0.364,0.371,0.3609,0.3606,0.3375,0.3717,0.3717,0.3718,0.3718,0.3718,0.3719,0.284,0.2884,0.2918,0.3024,0.3084,0.3224,0.3455,0.3563,0.3669,0.3689,0.3688,0.3385,0.3634,0.3604,0.3725,0.3724,0.3723,0.3722,0.3722,0.2805,0.2817,0.2869,0.2919,0.3062,0.3116,0.336,0.3513,0.3645,0.366,0.3387,0.368,0.3641,0.3634,0.3604,0.3719,0.3719,0.3719,0.3719,0.276,0.2781,0.2805,0.2861,0.2964,0.3063,0.3086,0.3208,0.3275,0.3213,0.3263,0.3138,0.3148,0.3073,0.3079,0.3035,0.3002,0.3001,0.3,0.2737,0.275,0.2734,0.2787,0.2892,0.2939,0.2841,0.2719,0.281,0.2952,0.2983,0.3013,0.281,0.2843,0.2709,0.2734,0.2657,0,0]},{"header":{"parameterUnit":"m.s-1","parameterCategory":2,"la1":30.2992,"la2":30.254,"lo1":-89.0895,"lo2":-89.0443,"dy":0.0025,"dx":0.0025,"nx":19,"ny":19,"refTime":"2026-04-20T09:00:00:Z","depth":"0","parameterNumber":3,"parameterNumberName":"V-component_of_CURRENTS"},"data":[0,0,0,0.0198,0.0198,0.0201,0.0201,0.0173,0.0173,0,0,0,0,0,0,0,0,0,0,0,0.0198,0.0198,0.0198,0.0198,0.0201,0.0201,0.0173,0.0173,0,0,0,0,0,0,0,0,0,0,0,0.0198,0.0198,0.0199,0.0198,0.0201,0.0201,0.0174,0.0178,0,0,0,0,0,0,0,0,0,0,0.0179,0.0182,0.0198,0.0199,0.0198,0.0201,0.0201,0.0179,0.0178,0.0164,0,0.0169,0,0.0171,0.0171,0.0171,0,0,0,0.0194,0.0183,0.0187,0.0199,0.0198,0.0201,0.0199,0.0178,0.0177,0.0163,0.0169,0.0168,0.017,0.0171,0.017,0.0186,0.0186,0,0,0.0194,0.0193,0.0188,0.0187,0.0204,0.0199,0.0199,0.0178,0.0177,0.0169,0.0168,0.017,0.017,0.017,0.0185,0.0186,0,0,0,0.0196,0.0193,0.0198,0.0188,0.0191,0.0199,0.0199,0.0178,0.0181,0.0167,0.017,0.017,0.017,0.0185,0.0186,0.0295,0,0,0,0.0196,0.0194,0.0198,0.0197,0.0192,0.0188,0.0199,0.0182,0.018,0.017,0.017,0.0169,0.0185,0.0185,0.0292,0.0386,0,0,0,0.0197,0.0194,0.0198,0.0197,0.02,0.0188,0.019,0.0182,0.0181,0.0171,0.0169,0.0184,0.0185,0.0288,0.0378,0.0451,0,0,0,0.0192,0.0222,0.0198,0.0234,0.02,0.0236,0.019,0.0202,0.0199,0.017,0.0185,0.0186,0.0287,0.0373,0.0445,0.0571,0.0605,0,0,0.0233,0.0226,0.0251,0.0231,0.0285,0.0234,0.029,0.0258,0.0207,0.0187,0.0188,0.0293,0.0378,0.0449,0.0628,0.0661,0,0,0,0.0268,0.0289,0.0301,0.0323,0.0328,0.0352,0.0312,0.0305,0.0294,0.021,0.0282,0.0333,0.0375,0.0439,0.0464,0.0342,0.019,0.019,0.019,0.0327,0.0339,0.0395,0.0413,0.043,0.043,0.0459,0.0436,0.0358,0.0371,0.0413,0.0536,0.0604,0.0625,0.0496,0.0376,0.0376,0.0376,0.0377,0.0418,0.0462,0.0474,0.053,0.0543,0.0581,0.0601,0.0572,0.0615,0.0517,0.0549,0.054,0.066,0.0512,0.0384,0.0382,0.0382,0.0381,0.038,0.047,0.0498,0.0522,0.0605,0.068,0.0698,0.0832,0.0803,0.0743,0.0787,0.0819,0.0818,0.0698,0.0777,0.0778,0.0779,0.0779,0.078,0.078,0.0517,0.0549,0.0622,0.0701,0.0773,0.0886,0.0978,0.1042,0.1055,0.099,0.0989,0.074,0.0659,0.0655,0.0792,0.079,0.0788,0.0787,0.0786,0.0603,0.0607,0.0724,0.0798,0.098,0.1161,0.123,0.1384,0.1395,0.1426,0.1076,0.1087,0.1074,0.1052,0.1057,0.129,0.129,0.129,0.129,0.0655,0.0668,0.0827,0.0966,0.1148,0.1294,0.1583,0.1676,0.1504,0.1354,0.121,0.111,0.1095,0.1072,0.105,0.105,0.1276,0.1275,0.1275,0.0722,0.076,0.0883,0.1011,0.1221,0.1454,0.1741,0.1866,0.1531,0.1252,0.1016,0.1017,0.0837,0.0823,0.0753,0.0732,0.0719,0,0]}],[{"header":{"parameterUnit":"m.s-1","parameterCategory":2,"la1":30.2992,"la2":30.254,"lo1":-89.0895,"lo2":-89.0443,"dy":0.0025,"dx":0.0025,"nx":19,"ny":19,"refTime":"2026-04-20T09:00:00:Z","depth":"2","parameterNumber":2,"parameterNumberName":"U-component_of_CURRENTS"},"data":[0,0,0,0.2514,0.2515,0.2584,0.2585,0.2673,0.2674,0,0,0,0,0,0,0,0,0,0,0,0.2502,0.2503,0.2514,0.2515,0.2584,0.2585,0.2673,0.2674,0,0,0,0,0,0,0,0,0,0,0,0.2502,0.2503,0.2504,0.2515,0.2584,0.2585,0.2673,0.2621,0,0,0,0,0,0,0,0,0,0,0.2554,0.2531,0.2502,0.2504,0.2516,0.2584,0.2585,0.2619,0.2624,0.2642,0,0.2664,0,0.2666,0.268,0.268,0,0,0,0.2517,0.2526,0.2555,0.2504,0.2516,0.2584,0.2554,0.2622,0.2628,0.2649,0.2665,0.2668,0.2667,0.2681,0.2681,0.28,0.2801,0,0,0.2513,0.2503,0.2551,0.2559,0.255,0.2551,0.2556,0.2626,0.2633,0.2665,0.267,0.2669,0.2681,0.2682,0.2799,0.28,0,0,0,0.2501,0.25,0.2527,0.2556,0.2566,0.2553,0.2558,0.263,0.2643,0.2671,0.267,0.2682,0.2683,0.2799,0.28,0.2865,0,0,0,0.2499,0.2493,0.2526,0.2518,0.2565,0.2595,0.2561,0.2638,0.2645,0.2669,0.2682,0.2684,0.2798,0.2799,0.2862,0.287,0,0,0,0.2496,0.2492,0.2507,0.2518,0.2547,0.2594,0.261,0.264,0.2645,0.268,0.2684,0.2797,0.2799,0.2859,0.2866,0.2934,0,0,0,0.2473,0.2493,0.2507,0.2535,0.2546,0.2599,0.261,0.2659,0.2693,0.2682,0.2798,0.28,0.2858,0.2863,0.2931,0.2761,0.2762,0,0,0.2481,0.2494,0.2511,0.2525,0.2573,0.2589,0.2653,0.2706,0.2722,0.2773,0.2776,0.2863,0.2866,0.2933,0.2851,0.2849,0,0,0,0.2502,0.2523,0.2542,0.2574,0.2609,0.2665,0.2702,0.2745,0.2826,0.2748,0.2876,0.2876,0.2916,0.2807,0.2807,0.2807,0.2807,0.2807,0.2806,0.2505,0.253,0.2557,0.26,0.2647,0.2725,0.2791,0.2857,0.286,0.292,0.294,0.3046,0.2931,0.2929,0.2962,0.2963,0.2963,0.2963,0.2963,0.2505,0.2509,0.2567,0.2608,0.2681,0.2752,0.2882,0.2929,0.3045,0.3016,0.3053,0.2894,0.2932,0.2969,0.2968,0.2967,0.2966,0.2966,0.2966,0.2477,0.2478,0.2516,0.2574,0.2675,0.2781,0.2898,0.3015,0.3095,0.315,0.3041,0.3037,0.308,0.3182,0.3182,0.3183,0.3183,0.3183,0.3183,0.2413,0.2445,0.2471,0.2551,0.2609,0.2727,0.2916,0.2996,0.3075,0.3088,0.3087,0.312,0.3113,0.3093,0.3189,0.3188,0.3187,0.3187,0.3186,0.2358,0.2388,0.2405,0.2449,0.2547,0.2546,0.2762,0.285,0.2978,0.2971,0.3059,0.306,0.3022,0.3018,0.2996,0.3062,0.3062,0.3062,0.3062,0.2317,0.2335,0.2337,0.236,0.2399,0.2455,0.2395,0.2477,0.268,0.2734,0.2748,0.2638,0.265,0.2586,0.2593,0.2559,0.2512,0.2511,0.251,0.2279,0.2291,0.226,0.228,0.231,0.2277,0.2109,0.2019,0.2197,0.2488,0.2653,0.3025,0.2896,0.2903,0.2828,0.2829,0.2786,0,0]},{"header":{"parameterUnit":"m.s-1","parameterCategory":2,"la1":30.2992,"la2":30.254,"lo1":-89.0895,"lo2":-89.0443,"dy":0.0025,"dx":0.0025,"nx":19,"ny":19,"refTime":"2026-04-20T09:00:00:Z","depth":"2","parameterNumber":3,"parameterNumberName":"V-component_of_CURRENTS"},"data":[0,0,0,0.0177,0.0177,0.0185,0.0185,0.0175,0.0175,0,0,0,0,0,0,0,0,0,0,0,0.0174,0.0174,0.0177,0.0177,0.0185,0.0185,0.0175,0.0175,0,0,0,0,0,0,0,0,0,0,0,0.0174,0.0174,0.0174,0.0177,0.0185,0.0185,0.0175,0.0173,0,0,0,0,0,0,0,0,0,0,0.0168,0.0168,0.0174,0.0174,0.0178,0.0185,0.0185,0.0173,0.0173,0.0166,0,0.017,0,0.0173,0.0174,0.0174,0,0,0,0.0175,0.0168,0.0172,0.0174,0.0178,0.0185,0.0181,0.0173,0.0173,0.0166,0.017,0.0169,0.0173,0.0173,0.0173,0.0204,0.0205,0,0,0.0174,0.0172,0.0172,0.0172,0.0183,0.0181,0.0181,0.0174,0.0173,0.017,0.0169,0.0172,0.0173,0.0173,0.0204,0.0204,0,0,0,0.0175,0.0172,0.0177,0.0172,0.0176,0.0181,0.0182,0.0173,0.0176,0.0169,0.0172,0.0173,0.0173,0.0203,0.0204,0.0285,0,0,0,0.0174,0.0173,0.0177,0.0175,0.0176,0.0177,0.0182,0.0176,0.0176,0.0172,0.0173,0.0173,0.0203,0.0204,0.0282,0.0355,0,0,0,0.0173,0.0172,0.0175,0.0175,0.018,0.0178,0.0179,0.0176,0.0177,0.0174,0.0173,0.0203,0.0204,0.0279,0.0349,0.0406,0,0,0,0.0169,0.0194,0.0175,0.0208,0.018,0.0218,0.018,0.0194,0.0196,0.0173,0.0203,0.0204,0.0278,0.0345,0.0402,0.0465,0.0489,0,0,0.0204,0.0198,0.0222,0.0205,0.026,0.0217,0.0274,0.0249,0.0208,0.0202,0.0203,0.0283,0.0348,0.0406,0.0525,0.0548,0,0,0,0.0236,0.0256,0.0269,0.0293,0.0302,0.0331,0.03,0.029,0.0282,0.0214,0.0281,0.0321,0.0354,0.0383,0.0401,0.0209,0.0209,0.0209,0.0209,0.0286,0.0301,0.0353,0.0377,0.04,0.0405,0.0426,0.0405,0.0343,0.035,0.0384,0.0486,0.0516,0.053,0.036,0.0361,0.0361,0.0361,0.0361,0.0367,0.0406,0.0425,0.0479,0.05,0.0541,0.0553,0.0522,0.0546,0.0468,0.0495,0.0464,0.0555,0.0368,0.0366,0.0366,0.0365,0.0364,0.0364,0.0409,0.0433,0.046,0.0542,0.0616,0.0641,0.075,0.0713,0.0648,0.0675,0.0683,0.0681,0.0554,0.0671,0.0672,0.0672,0.0673,0.0673,0.0674,0.0443,0.0476,0.0543,0.0622,0.0693,0.0799,0.0869,0.0903,0.0879,0.0811,0.081,0.0591,0.0581,0.0573,0.0683,0.0681,0.068,0.0679,0.0679,0.0512,0.0519,0.0628,0.0699,0.0874,0.1029,0.1079,0.1149,0.1138,0.1131,0.088,0.0872,0.086,0.0844,0.0842,0.1016,0.1016,0.1016,0.1016,0.0553,0.0566,0.0714,0.0848,0.102,0.1143,0.1325,0.1322,0.1209,0.1095,0.1092,0.1019,0.1004,0.0994,0.0975,0.0972,0.118,0.1181,0.1181,0.0609,0.0646,0.0758,0.0884,0.1087,0.1274,0.1419,0.1396,0.1215,0.1183,0.1073,0.1036,0.0914,0.0897,0.0863,0.084,0.0828,0,0]}],[{"header":{"parameterUnit":"m.s-1","parameterCategory":2,"la1":30.2992,"la2":30.254,"lo1":-89.0895,"lo2":-89.0443,"dy":0.0025,"dx":0.0025,"nx":19,"ny":19,"refTime":"2026-04-20T09:00:00:Z","depth":"4","parameterNumber":2,"parameterNumberName":"U-component_of_CURRENTS"},"data":[0,0,0,0.1521,0.1524,0.1635,0.1635,0.1742,0.1743,0,0,0,0,0,0,0,0,0,0,0,0.1493,0.1494,0.1521,0.1524,0.1635,0.1635,0.1742,0.1743,0,0,0,0,0,0,0,0,0,0,0,0.1492,0.1493,0.1495,0.1524,0.1635,0.1635,0.1742,0.1667,0,0,0,0,0,0,0,0,0,0,0.1563,0.1548,0.1493,0.1495,0.1525,0.1634,0.1635,0.1664,0.1671,0.1682,0,0.1712,0,0.1726,0.175,0.175,0,0,0,0.1524,0.1541,0.1564,0.1495,0.1526,0.1634,0.1585,0.1668,0.1677,0.1692,0.1714,0.1718,0.1728,0.175,0.1751,0.1859,0.186,0,0,0.1518,0.1516,0.1559,0.157,0.1571,0.1581,0.1588,0.1674,0.1693,0.1714,0.172,0.173,0.1751,0.1751,0.1859,0.1859,0,0,0,0.15,0.1512,0.1534,0.1566,0.1587,0.1584,0.1592,0.169,0.1696,0.1722,0.1731,0.1751,0.1752,0.1858,0.1859,0.1896,0,0,0,0.1496,0.1502,0.1532,0.1533,0.1586,0.1646,0.1606,0.169,0.17,0.173,0.1751,0.1753,0.1858,0.1859,0.1894,0.1901,0,0,0,0.1484,0.15,0.1517,0.1532,0.1578,0.1645,0.1657,0.1693,0.1706,0.175,0.1754,0.1857,0.1859,0.1892,0.1898,0.1957,0,0,0,0.1473,0.1494,0.1517,0.1547,0.1577,0.1632,0.1656,0.1718,0.1759,0.1752,0.1858,0.1859,0.1891,0.1896,0.1954,0.1691,0,0,0,0.1481,0.1496,0.1509,0.1531,0.1566,0.1615,0.1677,0.1749,0.1778,0.1826,0.1829,0.1895,0.1898,0.1956,0.176,0,0,0,0,0.1498,0.1511,0.1526,0.156,0.1602,0.1666,0.1732,0.1773,0.1856,0.1808,0.1907,0.1908,0.1944,0.1784,0.1865,0.1864,0.1864,0.1864,0.1864,0.1499,0.1514,0.1536,0.1571,0.162,0.1713,0.1776,0.1848,0.1872,0.1923,0.1948,0.2029,0.186,0.1964,0.1964,0.1964,0.1964,0.1964,0.1965,0.1485,0.1482,0.1538,0.1571,0.1647,0.1726,0.1838,0.1891,0.2,0.1989,0.2024,0.1844,0.1969,0.1968,0.1967,0.1967,0.1966,0.1966,0.1966,0.1448,0.1446,0.1494,0.1549,0.1648,0.1752,0.1841,0.1948,0.2035,0.2082,0.1944,0.2065,0.2053,0.2123,0.2124,0.2124,0.2124,0.2124,0.2125,0.1378,0.1418,0.1445,0.1526,0.1583,0.1691,0.186,0.1923,0.204,0.1957,0.2113,0.2083,0.2077,0.2063,0.2129,0.2128,0.2128,0.2127,0.2127,0.1299,0.1345,0.1359,0.1405,0.1498,0.155,0.1745,0.1815,0.1877,0.1873,0.1892,0.1903,0.1869,0.187,0.1846,0.1852,0.1848,0.1845,0,0.1247,0.1266,0.1277,0.1291,0.1313,0.1442,0.1456,0.1567,0.1686,0.1621,0.1887,0.1906,0.1912,0.187,0.1866,0.1834,0,0,0,0.1197,0.121,0.1183,0.12,0.1205,0.1282,0.1442,0.1421,0.167,0.1653,0.1767,0.1787,0.1986,0.2143,0.2118,0.2112,0.2087,0,0]},{"header":{"parameterUnit":"m.s-1","parameterCategory":2,"la1":30.2992,"la2":30.254,"lo1":-89.0895,"lo2":-89.0443,"dy":0.0025,"dx":0.0025,"nx":19,"ny":19,"refTime":"2026-04-20T09:00:00:Z","depth":"4","parameterNumber":3,"parameterNumberName":"V-component_of_CURRENTS"},"data":[0,0,0,0.0196,0.0197,0.0221,0.0221,0.0242,0.0242,0,0,0,0,0,0,0,0,0,0,0,0.019,0.0191,0.0196,0.0197,0.0221,0.0221,0.0242,0.0242,0,0,0,0,0,0,0,0,0,0,0,0.019,0.019,0.0191,0.0197,0.0221,0.0221,0.0242,0.0227,0,0,0,0,0,0,0,0,0,0,0.0205,0.0199,0.019,0.0191,0.0197,0.0221,0.0221,0.0226,0.0228,0.0228,0,0.0234,0,0.0237,0.0243,0.0243,0,0,0,0.0198,0.0197,0.0205,0.0191,0.0197,0.0221,0.021,0.0227,0.0229,0.023,0.0234,0.0235,0.0237,0.0244,0.0244,0.0293,0.0294,0,0,0.0197,0.0193,0.0203,0.0206,0.0206,0.0209,0.0211,0.0228,0.023,0.0234,0.0236,0.0238,0.0244,0.0244,0.0293,0.0293,0,0,0,0.0192,0.0192,0.02,0.0205,0.0209,0.021,0.0212,0.023,0.0232,0.0236,0.0238,0.0244,0.0244,0.0292,0.0293,0.0349,0,0,0,0.0191,0.019,0.0199,0.0197,0.0209,0.0221,0.0213,0.0231,0.0233,0.0238,0.0244,0.0244,0.0292,0.0293,0.0347,0.0381,0,0,0,0.0189,0.0189,0.0193,0.0197,0.0207,0.022,0.0224,0.0232,0.0234,0.0243,0.0244,0.0292,0.0293,0.0345,0.0376,0.0406,0,0,0,0.0183,0.0204,0.0193,0.0223,0.0206,0.0248,0.0224,0.0248,0.026,0.0244,0.0292,0.0293,0.0344,0.0374,0.0404,0.0396,0,0,0,0.0209,0.0207,0.0227,0.0218,0.027,0.0244,0.03,0.0297,0.0274,0.0284,0.0286,0.0348,0.0376,0.0406,0.0454,0,0,0,0,0.0236,0.0253,0.0267,0.0293,0.031,0.0341,0.0333,0.0329,0.0337,0.0285,0.0352,0.0369,0.0385,0.0373,0.0298,0.0298,0.0298,0.0297,0.0297,0.0267,0.0286,0.0332,0.0361,0.0388,0.0407,0.0426,0.0418,0.0386,0.0395,0.0418,0.0484,0.0474,0.0415,0.0415,0.0416,0.0416,0.0416,0.0416,0.0322,0.0354,0.0385,0.0437,0.0466,0.0511,0.0525,0.0507,0.0518,0.0475,0.0488,0.0438,0.0422,0.0421,0.042,0.0419,0.0419,0.0419,0.0418,0.0344,0.0365,0.0398,0.0478,0.0551,0.0587,0.0657,0.0631,0.0584,0.0595,0.057,0.0526,0.0518,0.0596,0.0597,0.0597,0.0597,0.0598,0.0598,0.0353,0.039,0.0449,0.053,0.0599,0.0685,0.0729,0.0733,0.0685,0.0644,0.0613,0.0545,0.0539,0.0528,0.0602,0.0601,0.0601,0.06,0.06,0.0386,0.0402,0.0492,0.056,0.0713,0.0775,0.0821,0.0802,0.0798,0.0754,0.0664,0.0659,0.0639,0.0631,0.0621,0.0726,0.0726,0.0727,0,0.0403,0.0418,0.0539,0.0652,0.0773,0.0836,0.0867,0.0861,0.0778,0.0762,0.0777,0.0677,0.0672,0.0648,0.0641,0.0632,0,0,0,0.0431,0.0465,0.0549,0.0661,0.0802,0.085,0.0877,0.0854,0.0796,0.0779,0.0731,0.073,0.068,0.0616,0.0573,0.0566,0.0546,0,0]}]]